This is the latest recevied weather packets stored in our database for station/object KQ4WWD. If no packets are shown the sender has not sent any weather packets the latest 10 day(s).
| Time | Temp. | Humidity | Pressure | Rain* | Wind** | Luminosity | Snow |
|---|---|---|---|---|---|---|---|
| 1777663068 | 31.67° C | 51% | 1009.7 hPa | 0 mm | - | 622 W/m² | - |
| 1777662765 | 32.22° C | 51% | 1009.9 hPa | 0 mm | - | 196 W/m² | - |
| 1777662462 | 32.22° C | 51% | 1010.1 hPa | 0 mm | - | 764 W/m² | - |
| 1777662157 | 31.67° C | 52% | 1010.2 hPa | 0 mm | - | 276 W/m² | - |
| 1777661853 | 31.67° C | 53% | 1009.8 hPa | 0 mm | - | 287 W/m² | - |
| 1777661549 | 32.22° C | 52% | 1010.1 hPa | 0 mm | - | 233 W/m² | - |
| 1777661245 | 32.22° C | 50% | 1010.2 hPa | 0 mm | - | 584 W/m² | - |
| 1777660941 | 32.22° C | 50% | 1010 hPa | 0 mm | - | 622 W/m² | - |
| 1777660637 | 32.22° C | 51% | 1010.3 hPa | 0 mm | - | 658 W/m² | - |
| 1777660334 | 32.22° C | 51% | 1010.2 hPa | 0 mm | - | 795 W/m² | - |
| 1777660030 | 31.67° C | 51% | 1010.2 hPa | 0 mm | - | 389 W/m² | - |
| 1777659727 | 31.67° C | 52% | 1010.3 hPa | 0 mm | - | 342 W/m² | - |
| 1777659424 | 32.22° C | 52% | 1010.4 hPa | 0 mm | - | 342 W/m² | - |
| 1777659121 | 32.78° C | 49% | 1010.4 hPa | 0 mm | - | 554 W/m² | - |
| 1777658819 | 32.78° C | 50% | 1010.4 hPa | 0 mm | - | 777 W/m² | - |
| 1777658515 | 32.78° C | 48% | 1010.6 hPa | 0 mm | - | 627 W/m² | - |
| 1777658212 | 32.78° C | 50% | 1010.8 hPa | 0 mm | - | 786 W/m² | - |
| 1777657909 | 32.22° C | 50% | 1010.7 hPa | 0 mm | - | 791 W/m² | - |
| 1777657605 | 31.67° C | 50% | 1010.8 hPa | 0 mm | - | 763 W/m² | - |
| 1777657303 | 31.11° C | 54% | 1011 hPa | 0 mm | - | 553 W/m² | - |
| 1777657000 | 31.67° C | 55% | 1011 hPa | 0 mm | - | 715 W/m² | - |
| 1777656697 | 31.67° C | 55% | 1011.2 hPa | 0 mm | - | 778 W/m² | - |
| 1777656393 | 32.22° C | 53% | 1011.1 hPa | 0 mm | - | 812 W/m² | - |
| 1777656088 | 31.67° C | 55% | 1011.2 hPa | 0 mm | - | 355 W/m² | - |
| 1777655785 | 30.56° C | 55% | 1011.2 hPa | 0 mm | - | 863 W/m² | - |
* Rain latest hour (hover to see other rain measurements)
** Current wind speed in m/s (hover to see current wind gust speed)